STARLINK-31492, 59212

Orbit data source: Space-Track

STARLINK-31492, 59212 is a payload satellite owned by SpaceX/Seattle (US) in LEO that was launched on Mon, 11 Mar 2024 UTC via an FALCON 9 launch vehicle from the Air Force Western Test Range (AFWTR). Payload-class satellites include a variety of spacecraft equipped with specific instruments for various scientific and technological missions. These include communications satellites like Starlink; space stations such as the ISS; scientific satellites like the Hubble; Earth observation satellites from companies like Planet Labs, Umbra, and HawkEye 360; GPS; miniature CubeSats for education and research; and military/defense satellites.

Loading next visibility...
Identifier
59212, 2024-046M
Orbit
LEO
Country
Flag of USUS
Related business
Manufacturer
SpaceX/Seattle
Mission
Operational Commercial Communications
Bus & Motor
STARLINK V2M, Unknown motor
Mass
730 kg wet, ~700 kg dry
Launch date (UTC)
2024-03-11 (2 years ago)
Launch vehicle
FALCON 9
Launch site
Air Force Western Test Range (AFWTR)
Object type
Payload
Rocket body
Debris
Shape & HBR
Box + 2 Pan, 17.7 m
Radar Cross Section
33.884 m², Large (>1 m²)

Expand to show TLE details & history
Last TLE update: 2 days ago

TLE from 2 days ago
0 STARLINK-31492
1 59212U 24046M   26171.35376515 -.00000174  00000-0  62310-5 0  9997
2 59212  53.1611  38.7661 0000499  48.4820 311.6224 15.30192679128752
Epoch: 2026-06-20T08:29Z
TLE epoch observation values (Epoch: 2026-06-20T08:29:25.308Z)
Latitude
-0.00001°
Longitude
2.84104°
Altitude
475.91 km
Speed
7.629 km/s
True Right ascension
02h 35m 03s
True Declination
0° 00' 00"
Sunlit
Object was in daylight at epoch
Visualization orbit readout
Latitude
Unknown
Longitude
Unknown
Altitude
Unknown
Speed
Unknown
Apparent Right ascension
Unknown
Apparent Declination
Unknown
Sunlit
N/A
Visualization observer readout
Local Sidereal Time
00:34:18
Azimuth
Unknown
Elevation
Unknown
Doppler factor
Unknown
Orbital elements
Apogee altitude
475.835 km
Perigee altitude
475.151 km
Semi-major axis
6,853.63 km
Eccentricity
0.00005
Inclination
53.1611°
RAAN
38.7661°
Arg. of periapsis
48.482°
True anomaly
311.61813°
Mean anomaly
311.6224°
Eccentric anomaly
311.62026°
Mean motion
3.82527 °/min
Orbital period
94.11 mins
BSTAR
0.000006231
Loading maneuver chart data...
Computing Atmospheric mass density...
Loading historical data...
Loading historical data...
Loading historical data...
Loading historical data...
Loading historical data...
Loading historical data...
Loading historical data...

Documentation

Showing up to 5 results
|